Flag for Russia Weather past 2 weeks in Saratov, Russia

52 °F

Mostly cloudy.

Feels Like: 50 °F
Forecast: 35 / 58 °F
Wind: 6 mph from Northeast

Location: Saratov / Tsentralny

Current Time: Oct 7, 2015 at 1:42:38 AM

Latest Report: Oct 7, 2015 at 12:30 AM

Visibility: N/A

Pressure: 29.62 "Hg

Humidity: 88%

Dew point: 48 °F

Location of SaratovLocation

Historic Weather in Saratov — Graph


Saratov temperature yesterday

Maximum temperature yesterday: 72 °F (at 2:00 PM)
Minimum temperature yesterday: 54 °F (at 4:00 AM)
Average temperature yesterday: 61 °F

Past Weeks' High & Low Weather Summary

High86 °F (Sep 23, 3:00 PM)94% (Oct 1, 3:00 AM)30.33 "Hg (Oct 1, 3:00 AM)
Low43 °F (Oct 5, 5:00 AM)22% (Sep 22, 4:00 PM)29.62 "Hg (Oct 6, 9:00 PM)
Average64 °F48%30.14 "Hg
* Reported Midnight between Sep 21 and Sep 22 — Oct 7 12:30 AM, Saratov, Weather by CustomWeather, © 2015

Note: Actual official high and low records may vary slightly from our data, if they occured in-between our weather recording intervals... More about our weather records


Saratov weather history for previous 24 hours

Time TempWeatherWind HumidityBarometerVisibility
12:30 AM
Wed, Oct 7
52 °FMostly cloudy.6 mph88%29.62 "HgN/A
12:00 AM52 °FMostly cloudy.8 mph88%29.62 "HgN/A
11:30 PM
Tue, Oct 6
55 °FPassing clouds.10 mph72%29.65 "HgN/A
11:00 PM55 °FPassing clouds.10 mph72%29.65 "HgN/A
10:30 PM57 °FPassing clouds.10 mph67%29.65 "HgN/A
10:00 PM57 °FPassing clouds.13 mph67%29.65 "HgN/A
9:30 PM63 °FPassing clouds.13 mph49%29.62 "HgN/A
9:00 PM63 °FPassing clouds.6 mph49%29.62 "HgN/A
8:30 PM63 °FPassing clouds.6 mph52%29.65 "HgN/A
8:00 PM63 °FPassing clouds.8 mph52%29.65 "HgN/A
7:30 PM63 °FPassing clouds.8 mph52%29.65 "HgN/A
7:00 PM63 °FPassing clouds.3 mph52%29.65 "HgN/A
6:30 PM64 °FPassing clouds.3 mph49%29.68 "HgN/A
6:00 PM64 °FPartly sunny.3 mph49%29.68 "HgN/A
5:30 PM70 °FPartly sunny.3 mph33%29.68 "HgN/A
5:00 PM70 °FPartly sunny.6 mph33%29.68 "HgN/A
4:30 PM70 °FPartly sunny.6 mph35%29.68 "HgN/A
4:00 PM70 °FPartly sunny.8 mph35%29.68 "HgN/A
3:30 PM72 °FPartly sunny.8 mph31%29.71 "HgN/A
3:00 PM72 °FSunny.8 mph31%29.71 "Hg10 mi
2:30 PM72 °FSunny.8 mph31%29.74 "Hg10 mi
2:00 PM72 °FSunny.10 mph31%29.74 "Hg10 mi
1:30 PM70 °FSunny.13 mph35%29.77 "Hg10 mi
1:00 PM70 °FSunny.10 mph35%29.77 "Hg10 mi
12:30 PM66 °FSunny.10 mph46%29.80 "Hg10 mi
12:00 PM66 °FSunny.13 mph46%29.80 "Hg10 mi
11:30 AM63 °FSunny.13 mph56%29.83 "Hg10 mi
11:00 AM63 °FSunny.13 mph56%29.83 "Hg10 mi
10:30 AM59 °FSunny.10 mph51%29.83 "Hg10 mi
10:00 AM59 °FSunny.10 mph51%29.83 "Hg10 mi
9:00 AM57 °FSunny.10 mph59%29.83 "Hg10 mi
8:30 AM55 °FSunny.13 mph63%29.86 "Hg10 mi
8:00 AM55 °FSunny.10 mph63%29.86 "Hg10 mi
7:30 AM54 °FSunny.10 mph67%29.86 "Hg10 mi
6:30 AM55 °FClear.10 mph67%29.86 "Hg10 mi
6:00 AM55 °FClear.10 mph67%29.86 "Hg10 mi
5:30 AM54 °FClear.10 mph72%29.89 "Hg10 mi
5:00 AM54 °FClear.8 mph72%29.89 "Hg10 mi
4:30 AM54 °FClear.6 mph72%29.89 "Hg10 mi
4:00 AM54 °FClear.6 mph72%29.89 "Hg10 mi
3:30 AM55 °FClear.6 mph59%29.92 "Hg10 mi
3:00 AM55 °FClear.10 mph59%29.92 "Hg10 mi
2:30 AM55 °FClear.10 mph63%29.92 "Hg10 mi
2:00 AM55 °FClear.13 mph63%29.92 "Hg10 mi
1:30 AM55 °FClear.13 mph41%29.95 "Hg10 mi
Weather by CustomWeather, © 2015

See weather overviewHow to use our weather pages